Simultaneous Nadir Overpasses (SNOs) Predictions

Prediction of SNOs between NOAA-20 and AQUA Satellite Orbit:

Table of predicted SNOs for the next 14.0 days since TLE Epoch: 10/5/2024
Index Date (NOAA-20) Time (NOAA-20) Lat,Lon (NOAA-20) SZA (NOAA-20 ) Date (AQUA) Time (AQUA) Lat,Lon (AQUA) SZA (AQUA ) Distance(km) Time Diff (sec)
1 10/05/2024 23:37:30 -81.31, -67.15 87.84 10/05/2024 23:38:37 -81.31, -67.32 87.86 2.96 67
2 10/06/2024 00:28:14 81.32, 100.58 92.12 10/06/2024 00:27:57 81.32, 100.51 92.14 1.23 17
3 10/08/2024 11:40:43 81.32, -67.82 93.06 10/08/2024 11:40:37 81.32, -67.65 93.04 2.84 6
4 10/10/2024 22:53:10 81.32, 124.34 93.93 10/10/2024 22:53:12 81.31, 124.21 93.94 2.22 2
5 10/13/2024 10:05:37 81.32, -43.72 94.81 10/13/2024 10:05:42 81.31, -43.90 94.83 3.15 5
6 10/15/2024 21:18:03 81.32, 148.38 95.67 10/15/2024 21:18:06 81.33, 148.39 95.67 0.81 3



Historial Predications of SNOs between NOAA-20 and AQUA
